Weather History for Birmingham, AL

Change the Weather History Date:

Wednesday, May 28, 2014

  Actual Average Record
Temperature  
Mean Temperature 76 °F 74 °F  
Max Temperature 83 °F 84 °F 99 °F (1962)
Min Temperature 68 °F 63 °F 44 °F (1907)
Cooling Degree Days 11 9  
Month to date cooling degree days 201 171  
Year to date cooling degree days 260 255  
Growing Degree Days 26 (Base 50)    
Moisture  
Dew Point 66 °F    
Average Humidity 73    
Maximum Humidity 90    
Minimum Humidity 55    
Precipitation  
Precipitation 0.42 in 0.16 in 2.28 in (1991)
Month to date precipitation 2.00 4.53  
Year to date precipitation 22.54 23.51  
Sea Level Pressure  
Sea Level Pressure 30.03 in    
Wind  
Wind Speed 5 mph (SSE)    
Max Wind Speed 24 mph    
Max Gust Speed 32 mph    
Visibility 9 miles    
Events Rain    
T = Trace of Precipitation, MM = Missing Value Source: NWS Daily Summary

Daily Weather History Graph

Daily Weather History Graph

Search for Another Location

Airport:

Trip Planner

Search our weather history database for the weather conditions in past years. The results will help you decide how hot, cold, wet, or windy it might be!

Date:

Astronomy

May. 28, 2014 Rise Set
Actual Time 5:39 AM CDT 7:49 PM CDT
Civil Twilight 5:10 AM CDT 8:17 PM CDT
Nautical Twilight 4:36 AM CDT 8:52 PM CDT
Astronomical Twilight 3:59 AM CDT 9:29 PM CDT
Moon 5:41 AM CDT (5/28) 7:50 PM CDT (5/28)
Length of Visible Light 15h 07m
Length of Day
14h 10m
Waning Crescent, 0% of the Moon is Illuminated
May 28
Waning Crescent
May 28
New
Jun 5
First Quarter
Jun 12
Full
Jun 19
Last Quarter

Hourly Weather History & Observations

Time (CDT) Temp. Heat Index Dew Point Humidity Pressure Visibility Wind Dir Wind Speed Gust Speed Precip Events Conditions
12:53 AM 72.0 °F - 63.0 °F 73% 30.03 in 10.0 mi SE 5.8 mph - N/A   Mostly Cloudy
1:53 AM 72.0 °F - 62.1 °F 71% 30.01 in 10.0 mi Calm Calm - N/A   Scattered Clouds
2:53 AM 70.0 °F - 63.0 °F 78% 30.01 in 10.0 mi SSE 3.5 mph - N/A   Mostly Cloudy
3:53 AM 70.0 °F - 64.0 °F 81% 30.02 in 10.0 mi Calm Calm - N/A   Mostly Cloudy
4:53 AM 69.1 °F - 64.0 °F 84% 30.02 in 10.0 mi Calm Calm - N/A   Mostly Cloudy
5:53 AM 69.1 °F - 64.9 °F 87% 30.03 in 10.0 mi SE 4.6 mph - N/A   Mostly Cloudy
6:22 AM 69.8 °F - 66.2 °F 88% 30.07 in 9.0 mi Calm Calm - N/A   Mostly Cloudy
6:36 AM 71.6 °F - 66.2 °F 83% 30.06 in 9.0 mi Calm Calm - N/A   Mostly Cloudy
6:53 AM 71.1 °F - 66.0 °F 84% 30.04 in 8.0 mi Calm Calm - N/A   Mostly Cloudy
7:07 AM 71.6 °F - 66.2 °F 83% 30.06 in 7.0 mi South 3.5 mph - N/A   Mostly Cloudy
7:53 AM 75.9 °F - 68.0 °F 76% 30.04 in 9.0 mi South 9.2 mph - N/A   Mostly Cloudy
8:53 AM 77.0 °F - 66.9 °F 71% 30.04 in 10.0 mi South 5.8 mph - N/A   Mostly Cloudy
9:53 AM 81.0 °F 83.3 °F 66.9 °F 62% 30.03 in 10.0 mi SSE 9.2 mph - N/A   Mostly Cloudy
9:56 AM 80.6 °F 82.7 °F 66.2 °F 61% 30.06 in 10.0 mi SSE 8.1 mph - N/A   Mostly Cloudy
10:28 AM 80.6 °F 83.2 °F 68.0 °F 65% 30.06 in 10.0 mi SE 6.9 mph - N/A   Mostly Cloudy
10:53 AM 81.0 °F 83.0 °F 66.0 °F 60% 30.04 in 10.0 mi SE 11.5 mph 18.4 mph N/A   Mostly Cloudy
11:53 AM 81.0 °F 83.0 °F 66.0 °F 60% 30.03 in 10.0 mi South 6.9 mph - N/A   Mostly Cloudy
12:28 PM 77.0 °F - 66.2 °F 69% 30.05 in 1.8 mi South 6.9 mph 19.6 mph 0.03 in Rain Rain
12:31 PM 75.2 °F - 66.2 °F 73% 30.05 in 3.0 mi Variable 3.5 mph 19.6 mph 0.14 in Rain Heavy Rain
12:53 PM 78.8 °F - 66.2 °F 65% 30.04 in 10.0 mi Calm Calm - N/A   Mostly Cloudy
1:53 PM 82.4 °F 83.9 °F 64.4 °F 54% 30.02 in 10.0 mi SSE 9.2 mph - N/A   Overcast
2:53 PM 82.0 °F 83.4 °F 64.0 °F 54% 29.99 in 10.0 mi SSE 10.4 mph - N/A   Overcast
3:53 PM 73.9 °F - 64.0 °F 71% 30.03 in 8.0 mi WSW 20.7 mph 29.9 mph N/A   Mostly Cloudy
4:53 PM 69.1 °F - 66.0 °F 90% 30.03 in 6.0 mi Calm Calm - 0.09 in Rain Light Rain
5:53 PM 69.1 °F - 66.0 °F 90% 30.00 in 6.0 mi ESE 3.5 mph - 0.06 in Rain Light Rain
6:53 PM 69.1 °F - 66.0 °F 90% 30.01 in 10.0 mi East 3.5 mph - 0.05 in   Mostly Cloudy
7:53 PM 70.0 °F - 66.0 °F 87% 30.00 in 10.0 mi ENE 3.5 mph - 0.02 in   Mostly Cloudy
8:53 PM 69.1 °F - 66.0 °F 90% 30.01 in 10.0 mi Calm Calm - N/A   Mostly Cloudy
9:53 PM 69.1 °F - 66.0 °F 90% 30.01 in 10.0 mi Calm Calm - N/A   Scattered Clouds
10:53 PM 69.1 °F - 66.0 °F 90% 30.01 in 10.0 mi East 5.8 mph - 0.00 in   Mostly Cloudy
11:53 PM 68.0 °F - 64.9 °F 90% 30.01 in 10.0 mi Calm Calm - N/A   Overcast